{"data":{"norad_id":64072,"epoch":"2026-05-24T21:26:56.639040Z","epoch_age_seconds":91035,"freshness":"FRESH","line1":"1 64072U 25107J   26144.89371110  .00297091  00000+0  22155-2 0  9995","line2":"2 64072  43.0010 358.8380 0002360 256.9781 103.0824 15.71070222 59282","mean_motion":15.71070222,"eccentricity":0.000236,"inclination_deg":43.001,"raan_deg":358.838,"arg_perigee_deg":256.9781,"mean_anomaly_deg":103.0824,"bstar":0.0022155,"rev_number":5928,"period_min":91.657265209117,"perigee_km":354.24790646774,"apogee_km":357.42634225443,"semimajor_km":6733.9741243611,"source":"CELESTRAK","updated_at":"2026-05-25T13:38:20.259128Z"}}